• In Russia
  • List of Countries
  • For 7 days
  • Water Temperature
  • Satellite Maps
  • Weather Map
  • Weather Widgets
  • user-avatar
    Login

    Hourly Weather Townsville

    Today, 17 January, Wednesday

    Time Temperature Precipitation Wind Pressure Humidity
    00:00 +26°C° 0 mm 7 mps 751 mmHg 84%
    01:00 +24°C° 0 mm 7 mps 751 mmHg 85%
    02:00 +24°C° 0 mm 7 mps 751 mmHg 86%
    03:00 +24°C° 0 mm 6 mps 751 mmHg 87%
    04:00 +24°C° 0 mm 6 mps 750 mmHg 87%
    05:00 +24°C° 0 mm 6 mps 751 mmHg 86%
    06:00 +26°C° 0 mm 6 mps 751 mmHg 85%
    07:00 +26°C° 0 mm 6 mps 752 mmHg 84%
    08:00 +27°C° 0.1 mm 6 mps 752 mmHg 79%
    09:00 +28°C° 0.1 mm 7 mps 752 mmHg 74%
    10:00 +29°C° 0 mm 7 mps 752 mmHg 70%
    11:00 +30°C° 0.6 mm 7 mps 752 mmHg 71%
    12:00 +30°C° 0.6 mm 7 mps 752 mmHg 71%
    13:00 +30°C° 0.6 mm 7 mps 751 mmHg 72%
    14:00 +30°C° 0.7 mm 7 mps 751 mmHg 73%
    15:00 +29°C° 0.7 mm 7 mps 751 mmHg 74%
    16:00 +29°C° 0 mm 7 mps 751 mmHg 77%
    17:00 +28°C° 0.8 mm 7 mps 751 mmHg 80%
    18:00 +27°C° 0.8 mm 6 mps 752 mmHg 83%
    19:00 +26°C° 0.8 mm 6 mps 752 mmHg 86%
    20:00 +26°C° 0.7 mm 6 mps 752 mmHg 87%
    21:00 +26°C° 0.7 mm 6 mps 753 mmHg 88%
    22:00 +26°C° 0.7 mm 6 mps 753 mmHg 88%
    23:00 +26°C° 0.8 mm 6 mps 753 mmHg 89%

    Tomorrow, 18 January, Thursday

    Time Temperature Precipitation Wind Pressure Humidity
    00:00 +24°C° 0.8 mm 6 mps 753 mmHg 90%
    01:00 +24°C° 0.8 mm 6 mps 753 mmHg 90%
    02:00 +24°C° 0.4 mm 6 mps 752 mmHg 91%
    03:00 +24°C° 0.4 mm 6 mps 752 mmHg 91%
    04:00 +24°C° 0.4 mm 6 mps 752 mmHg 92%
    05:00 +24°C° 0.1 mm 7 mps 752 mmHg 91%
    06:00 +24°C° 0.1 mm 7 mps 753 mmHg 89%
    07:00 +24°C° 0.1 mm 7 mps 753 mmHg 88%
    08:00 +27°C° 0.1 mm 7 mps 753 mmHg 80%
    09:00 +29°C° 0.1 mm 7 mps 753 mmHg 72%
    10:00 +32°C° 0.1 mm 7 mps 753 mmHg 64%
    11:00 +33°C° 0.1 mm 8 mps 753 mmHg 58%
    12:00 +34°C° 0.1 mm 8 mps 753 mmHg 52%
    13:00 +35°C° 0.1 mm 8 mps 752 mmHg 47%
    14:00 +34°C° 0 mm 8 mps 752 mmHg 46%
    15:00 +34°C° 0 mm 8 mps 751 mmHg 46%
    16:00 +33°C° 0 mm 8 mps 751 mmHg 45%
    17:00 +31°C° 0 mm 8 mps 751 mmHg 53%
    18:00 +29°C° 0 mm 7 mps 752 mmHg 62%
    19:00 +27°C° 0 mm 7 mps 752 mmHg 70%
    20:00 +27°C° 0 mm 7 mps 752 mmHg 73%
    21:00 +26°C° 0 mm 7 mps 753 mmHg 77%
    22:00 +26°C° 0 mm 6 mps 753 mmHg 80%
    23:00 +24°C° 0 mm 6 mps 753 mmHg 81%

    Day after tomorrow, 19 January, Friday

    Time Temperature Precipitation Wind Pressure Humidity
    00:00 +24°C° 0 mm 6 mps 753 mmHg 82%
    01:00 +24°C° 0 mm 6 mps 752 mmHg 83%
    02:00 +25°C° 0 mm 5 mps 752 mmHg 84%
    03:00 +23°C° 0 mm 5 mps 752 mmHg 85%
    04:00 +23°C° 0 mm 5 mps 751 mmHg 86%
    05:00 +25°C° 0 mm 5 mps 752 mmHg 86%
    06:00 +25°C° 0 mm 5 mps 752 mmHg 85%
    07:00 +25°C° 0 mm 5 mps 753 mmHg 84%
    08:00 +27°C° 0 mm 5 mps 753 mmHg 77%
    09:00 +28°C° 0 mm 5 mps 753 mmHg 70%
    10:00 +29°C° 0 mm 5 mps 753 mmHg 64%
    11:00 +30°C° 0 mm 5 mps 752 mmHg 59%
    12:00 +32°C° 0 mm 5 mps 752 mmHg 54%
    13:00 +33°C° 0 mm 5 mps 751 mmHg 49%
    14:00 +33°C° 0 mm 5 mps 751 mmHg 50%
    15:00 +33°C° 0 mm 5 mps 750 mmHg 50%
    16:00 +33°C° 0 mm 6 mps 750 mmHg 50%
    17:00 +30°C° 0 mm 5 mps 750 mmHg 58%
    18:00 +29°C° 0 mm 5 mps 750 mmHg 66%
    19:00 +27°C° 0 mm 5 mps 751 mmHg 74%
    20:00 +27°C° 0 mm 5 mps 751 mmHg 76%
    21:00 +26°C° 0 mm 5 mps 752 mmHg 79%
    22:00 +26°C° 0 mm 4 mps 752 mmHg 81%
    23:00 +25°C° 0 mm 5 mps 752 mmHg 84%

    20 January, Saturday

    Time Temperature Precipitation Wind Pressure Humidity
    00:00 +25°C° 0 mm 5 mps 751 mmHg 88%
    01:00 +23°C° 0 mm 5 mps 750 mmHg 91%
    02:00 +23°C° 0 mm 4 mps 750 mmHg 92%
    03:00 +23°C° 0 mm 4 mps 750 mmHg 93%
    04:00 +24°C° 0 mm 3 mps 750 mmHg 94%
    05:00 +24°C° 0 mm 3 mps 750 mmHg 93%
    06:00 +25°C° 0 mm 3 mps 751 mmHg 91%
    07:00 +25°C° 0 mm 3 mps 751 mmHg 89%
    08:00 +27°C° 0 mm 3 mps 751 mmHg 79%
    09:00 +29°C° 0 mm 4 mps 751 mmHg 68%
    10:00 +32°C° 0 mm 4 mps 751 mmHg 57%
    11:00 +33°C° 0 mm 4 mps 750 mmHg 52%
    12:00 +34°C° 0 mm 5 mps 750 mmHg 47%
    13:00 +36°C° 0 mm 5 mps 749 mmHg 42%
    14:00 +35°C° 0 mm 5 mps 749 mmHg 45%
    15:00 +34°C° 0 mm 5 mps 748 mmHg 48%
    16:00 +34°C° 0 mm 5 mps 748 mmHg 51%
    17:00 +32°C° 0 mm 5 mps 748 mmHg 59%
    18:00 +29°C° 0 mm 5 mps 749 mmHg 67%
    19:00 +27°C° 0 mm 5 mps 749 mmHg 75%
    20:00 +27°C° 0 mm 4 mps 750 mmHg 78%
    21:00 +27°C° 0 mm 4 mps 750 mmHg 80%
    22:00 +26°C° 0 mm 4 mps 751 mmHg 83%
    23:00 +26°C° 0 mm 4 mps 750 mmHg 85%

    21 January, Sunday

    Time Temperature Precipitation Wind Pressure Humidity
    00:00 +26°C° 0 mm 4 mps 750 mmHg 88%
    01:00 +25°C° 0 mm 4 mps 750 mmHg 90%
    02:00 +25°C° 0 mm 4 mps 749 mmHg 90%
    03:00 +25°C° 0 mm 4 mps 749 mmHg 90%
    04:00 +25°C° 0 mm 3 mps 749 mmHg 90%
    05:00 +25°C° 0 mm 4 mps 749 mmHg 90%
    06:00 +25°C° 0 mm 4 mps 749 mmHg 89%
    07:00 +25°C° 0 mm 4 mps 750 mmHg 89%
    08:00 +26°C° 0 mm 4 mps 750 mmHg 84%
    09:00 +27°C° 0 mm 3 mps 751 mmHg 78%
    10:00 +28°C° 0 mm 3 mps 751 mmHg 73%
    11:00 +28°C° 0.6 mm 3 mps 750 mmHg 73%
    12:00 +28°C° 0.6 mm 3 mps 750 mmHg 73%
    13:00 +28°C° 0.6 mm 2 mps 750 mmHg 73%
    14:00 +27°C° 0.5 mm 3 mps 750 mmHg 77%
    15:00 +27°C° 0.5 mm 3 mps 749 mmHg 81%
    16:00 +26°C° 0.5 mm 3 mps 749 mmHg 85%
    17:00 +26°C° 0.1 mm 3 mps 750 mmHg 85%
    18:00 +25°C° 0.1 mm 3 mps 750 mmHg 85%
    19:00 +25°C° 0.1 mm 3 mps 750 mmHg 85%
    20:00 +25°C° 0 mm 3 mps 750 mmHg 86%
    21:00 +25°C° 0 mm 3 mps 750 mmHg 87%
    22:00 +25°C° 0 mm 3 mps 751 mmHg 88%
    23:00 +25°C° 0.1 mm 2 mps 750 mmHg 90%

    22 January, Monday

    Time Temperature Precipitation Wind Pressure Humidity
    00:00 +25°C° 0.1 mm 2 mps 750 mmHg 92%
    01:00 +25°C° 0.1 mm 2 mps 749 mmHg 94%
    02:00 +25°C° 0.1 mm 2 mps 749 mmHg 94%
    03:00 +25°C° 0.1 mm 2 mps 749 mmHg 95%
    04:00 +25°C° 0.1 mm 2 mps 749 mmHg 95%
    05:00 +25°C° 0.1 mm 2 mps 749 mmHg 94%
    06:00 +25°C° 0.1 mm 2 mps 749 mmHg 93%
    07:00 +25°C° 0.1 mm 2 mps 750 mmHg 92%
    08:00 +26°C° 0 mm 3 mps 750 mmHg 87%
    09:00 +27°C° 0 mm 3 mps 750 mmHg 83%
    10:00 +27°C° 0 mm 3 mps 750 mmHg 78%
    11:00 +28°C° 0 mm 3 mps 749 mmHg 75%
    12:00 +28°C° 0 mm 3 mps 749 mmHg 72%
    13:00 +29°C° 0 mm 2 mps 748 mmHg 69%
    14:00 +29°C° 0 mm 2 mps 748 mmHg 69%
    15:00 +28°C° 0 mm 2 mps 748 mmHg 69%
    16:00 +28°C° 0 mm 2 mps 747 mmHg 70%
    17:00 +27°C° 0 mm 2 mps 748 mmHg 74%
    18:00 +27°C° 0 mm 2 mps 748 mmHg 78%
    19:00 +26°C° 0 mm 2 mps 749 mmHg 83%
    20:00 +25°C° 0 mm 2 mps 749 mmHg 85%
    21:00 +25°C° 0 mm 2 mps 749 mmHg 88%
    22:00 +24°C° 0 mm 2 mps 749 mmHg 90%
    23:00 +24°C° 0 mm 1 mps 749 mmHg 92%
    Show more